Weather History for LKPD - October, 2012

Change the Weather History Date:

Thursday, October 11, 2012

  Actual Average Record
Temperature  
Mean Temperature 43 °F -  
Max Temperature 51 °F - - ()
Min Temperature 35 °F - - ()
Degree Days  
Heating Degree Days 22    
Moisture  
Dew Point 37 °F    
Average Humidity 82    
Maximum Humidity 100    
Minimum Humidity 58    
Precipitation  
Precipitation 0.00 in - - ()
Sea Level Pressure  
Sea Level Pressure 29.97 in    
Wind  
Wind Speed 2 mph ()    
Max Wind Speed 6 mph    
Max Gust Speed -    
Visibility 6.2 miles    
Events      
T = Trace of Precipitation, MM = Missing Value Source: Averaged Metar Reports

Daily Weather History Graph

Daily Weather History Graph

Search for Another Location

Airport or City:

Trip Planner

Search our weather history database for the weather conditions in past years. The results will help you decide how hot, cold, wet, or windy it might be!

Date:

Astronomy

Oct. 11, 2012 Rise Set
Actual Time 7:12 AM CEST 6:13 PM CEST
Civil Twilight 6:40 AM CEST 6:45 PM CEST
Nautical Twilight 6:03 AM CEST 7:23 PM CEST
Astronomical Twilight 5:25 AM CEST 8:00 PM CEST
Moon 2:08 AM CEST (10/11) 4:01 PM CEST (10/11)
Length of Visible Light 12h 05m
Length of Day
11h 00m
Waning Crescent, 20% of the Moon is Illuminated
Oct 11
Waning Crescent
Oct 15
New
Oct 22
First Quarter
Oct 29
Full
Nov 7
Last Quarter

Hourly Weather History & Observations

Time (CEST) Temp. Windchill Dew Point Humidity Pressure Visibility Wind Dir Wind Speed Gust Speed Precip Events Conditions
12:00 AM 41.0 °F 37.1 °F 39.2 °F 93% 29.98 in - West 5.8 mph - N/A   Clear
1:00 AM 41.0 °F 38.0 °F 37.4 °F 87% 29.98 in - West 4.6 mph - N/A   Clear
2:00 AM 39.2 °F - 37.4 °F 93% 29.98 in - WSW 2.3 mph - N/A   Clear
3:00 AM 35.6 °F - 35.6 °F 100% 29.98 in - West 1.2 mph - N/A   Clear
4:00 AM 35.6 °F - 33.8 °F 93% 29.98 in - Calm Calm - N/A   Clear
5:00 AM 35.6 °F - 33.8 °F 93% 29.98 in - Calm Calm - N/A   Clear
6:00 AM 37.4 °F - 35.6 °F 93% 29.98 in - Calm Calm - N/A   Clear
9:00 AM 39.2 °F - 37.4 °F 93% 30.01 in 6.2 mi West 1.2 mph - N/A   Mostly Cloudy
11:00 AM 48.2 °F - 41.0 °F 76% 30.01 in 6.2 mi West 5.8 mph - N/A   Partly Cloudy
1:00 PM 50.0 °F - 39.2 °F 66% 30.01 in 6.2 mi Variable 1.2 mph - N/A   Scattered Clouds
2:00 PM 50.0 °F - 39.2 °F 66% 29.98 in 6.2 mi Variable 2.3 mph - N/A   Scattered Clouds
3:00 PM 51.8 °F - 39.2 °F 62% 29.98 in 6.2 mi NNE 3.5 mph - N/A   Scattered Clouds
4:00 PM 51.8 °F - 37.4 °F 58% 29.95 in 6.2 mi Variable 2.3 mph - N/A   Scattered Clouds
5:00 PM 51.8 °F - 37.4 °F 58% 29.95 in 6.2 mi Variable 2.3 mph - N/A   Partly Cloudy
7:00 PM 44.6 °F 43.1 °F 39.2 °F 81% 29.95 in - ESE 3.5 mph - N/A   Clear
8:00 PM 41.0 °F 39.0 °F 35.6 °F 81% 29.95 in - East 3.5 mph - N/A   Clear
9:00 PM 41.0 °F - 37.4 °F 87% 29.95 in - Calm Calm - N/A   Clear
10:00 PM 39.2 °F - 35.6 °F 87% 29.95 in - SE 2.3 mph - N/A   Clear
11:00 PM 37.4 °F - 35.6 °F 93% 29.95 in - ENE 2.3 mph - N/A   Clear